OK2ILA-6 Weather Reports


time (UTC)temp
C
wind
direction
speed
KPH
gust
KPH
rain 1hr
cm
rain 24hr
cm
rain mn
cm
humidity
%
barometer
mb
20260507095003 21 0.0 0.0 0.00 0.00 0.00 54 1010.0
20260507094002 22 0.0 0.0 0.00 0.00 0.00 53 1010.0
20260507093002 22 0.0 0.0 0.00 0.00 0.00 54 1009.8
20260507092003 22 0.0 0.0 0.00 0.00 0.00 53 1009.8
20260507091003 23 0.0 0.0 0.00 0.00 0.00 54 1009.8
20260507090002 22 0.0 0.0 0.00 0.00 0.00 53 1009.6
20260507085002 22 0.0 0.0 0.00 0.00 0.00 54 1009.6
20260507084003 22 0.0 0.0 0.00 0.00 0.00 58 1009.4
20260507083003 22 0.0 0.0 0.00 0.00 0.00 58 1009.4
20260507082003 22 0.0 0.0 0.00 0.00 0.00 58 1009.4
20260507081002 22 0.0 0.0 0.00 0.00 0.00 58 1009.2
20260507080003 22 0.0 0.0 0.00 0.00 0.00 59 1009.2
20260507075003 21 0.0 0.0 0.00 0.00 0.00 64 1009.0
20260507074003 21 0.0 0.0 0.00 0.00 0.00 64 1009.0
20260507073003 21 0.0 0.0 0.00 0.00 0.00 66 1009.1
20260507072002 20 0.0 0.0 0.00 0.00 0.00 69 1009.0
20260507071003 19 0.0 0.0 0.00 0.00 0.00 70 1008.8
20260507070004 18 0.0 0.0 0.00 0.00 0.00 72 1008.8
20260507065003 17 0.0 0.0 0.00 0.00 0.00 72 1008.8
20260507064002 17 0.0 0.0 0.00 0.00 0.00 73 1008.8
20260507063002 17 0.0 0.0 0.00 0.00 0.00 74 1008.6
20260507062003 17 0.0 0.0 0.00 0.00 0.00 76 1008.4
20260507061003 16 0.0 0.0 0.00 0.00 0.00 78 1008.4
20260507060003 16 0.0 0.0 0.00 0.00 0.00 78 1008.4
20260507055002 16 0.0 0.0 0.00 0.00 0.00 79 1008.4
20260507054003 16 0.0 0.0 0.00 0.00 0.00 80 1008.2
20260507053003 15 0.0 0.0 0.00 0.00 0.00 82 1008.1
20260507052003 15 0.0 0.0 0.00 0.00 0.00 83 1008.0
20260507051002 15 0.0 0.0 0.00 0.00 0.00 84 1008.2
20260507050002 15 0.0 0.0 0.00 0.00 0.00 84 1007.9
20260507045003 14 0.0 0.0 0.00 0.00 0.00 86 1008.0
20260507044003 14 0.0 0.0 0.00 0.00 0.00 86 1007.8
20260507043003 14 0.0 0.0 0.00 0.00 0.00 86 1007.6
20260507042002 14 0.0 0.0 0.00 0.00 0.00 86 1007.5
20260507041003 14 0.0 0.0 0.00 0.00 0.00 86 1007.4
20260507040003 14 0.0 0.0 0.00 0.00 0.00 86 1007.4
20260507035003 14 0.0 0.0 0.00 0.00 0.00 86 1007.2
20260507034003 13 0.0 0.0 0.00 0.00 0.00 86 1006.9
20260507033002 13 0.0 0.0 0.00 0.00 0.00 86 1006.8
20260507032003 13 0.0 0.0 0.00 0.00 0.00 86 1007.0
20260507031003 13 0.0 0.0 0.00 0.00 0.00 85 1007.0
20260507030003 13 0.0 0.0 0.00 0.00 0.00 85 1006.8
20260507025002 13 0.0 0.0 0.00 0.00 0.00 85 1006.8
20260507024003 13 0.0 0.0 0.00 0.00 0.00 86 1006.6
20260507023003 13 0.0 0.0 0.00 0.00 0.00 86 1006.5
20260507022003 13 0.0 0.0 0.00 0.00 0.00 86 1006.3
20260507021002 13 0.0 0.0 0.00 0.00 0.00 86 1006.1
20260507020002 13 0.0 0.0 0.00 0.00 0.00 86 1006.2
20260507015003 13 0.0 0.0 0.00 0.00 0.00 86 1006.0
20260507014003 13 0.0 0.0 0.00 0.00 0.00 86 1006.0
20260507013003 13 0.0 0.0 0.00 0.00 0.00 86 1005.9
20260507012002 13 0.0 0.0 0.00 0.00 0.00 84 1005.9
20260507011002 13 0.0 0.0 0.00 0.00 0.00 84 1005.8
20260507010003 13 0.0 0.0 0.00 0.00 0.00 84 1005.8
20260507005003 13 0.0 0.0 0.00 0.00 0.00 84 1005.8
20260507004002 13 0.0 0.0 0.00 0.00 0.00 84 1005.8
20260507003002 13 0.0 0.0 0.00 0.00 0.00 83 1005.6
20260507002003 14 0.0 0.0 0.00 0.00 0.00 82 1005.5
20260507001003 14 0.0 0.0 0.00 0.00 0.00 82 1005.6
20260507000003 14 0.0 0.0 0.00 0.00 0.00 81 1005.8
20260506235002 14 0.0 0.0 0.00 0.00 0.00 81 1006.0
20260506234002 15 0.0 0.0 0.00 0.00 0.00 81 1005.8
20260506233003 15 0.0 0.0 0.00 0.00 0.00 80 1005.6
20260506232003 15 0.0 0.0 0.00 0.00 0.00 79 1005.6
20260506231002 15 0.0 0.0 0.00 0.00 0.00 78 1005.6
20260506230002 15 0.0 0.0 0.00 0.00 0.00 76 1005.6
20260506225003 16 0.0 0.0 0.00 0.00 0.00 76 1005.6
20260506224003 16 0.0 0.0 0.00 0.00 0.00 74 1005.6
20260506223003 18 0.0 0.0 0.00 0.00 0.00 65 1005.6
20260506222002 18 0.0 0.0 0.00 0.00 0.00 65 1005.6
20260506221002 17 0.0 0.0 0.00 0.00 0.00 66 1005.5
20260506220003 17 0.0 0.0 0.00 0.00 0.00 65 1005.4
20260506215003 18 0.0 0.0 0.00 0.00 0.00 64 1005.2
20260506214003 18 0.0 0.0 0.00 0.00 0.00 64 1005.2
20260506213002 18 0.0 0.0 0.00 0.00 0.00 64 1005.2
20260506212003 18 0.0 0.0 0.00 0.00 0.00 62 1005.1
20260506211003 18 0.0 0.0 0.00 0.00 0.00 61 1005.0
20260506210003 18 0.0 0.0 0.00 0.00 0.00 60 1005.0
20260506205002 19 0.0 0.0 0.00 0.00 0.00 60 1005.0
20260506204003 20 0.0 0.0 0.00 0.00 0.00 58 1004.9
20260506203003 20 0.0 0.0 0.00 0.00 0.00 58 1005.0
20260506202003 20 0.0 0.0 0.00 0.00 0.00 58 1004.8
20260506201002 20 0.0 0.0 0.00 0.00 0.00 58 1004.8
20260506200003 20 0.0 0.0 0.00 0.00 0.00 58 1004.7
20260506195003 19 0.0 0.0 0.00 0.00 0.00 60 1004.8
20260506194003 19 0.0 0.0 0.00 0.00 0.00 60 1004.6
20260506193002 19 0.0 0.0 0.00 0.00 0.00 59 1004.6
20260506192002 20 0.0 0.0 0.00 0.00 0.00 59 1004.6
20260506191003 20 0.0 0.0 0.00 0.00 0.00 58 1004.6
20260506190003 20 0.0 0.0 0.00 0.00 0.00 57 1004.3
20260506185003 20 0.0 0.0 0.00 0.00 0.00 56 1004.2
20260506184002 20 0.0 0.0 0.00 0.00 0.00 56 1004.2
20260506183002 20 0.0 0.0 0.00 0.00 0.00 56 1004.0
20260506182003 21 0.0 0.0 0.00 0.00 0.00 54 1003.8
20260506181003 21 0.0 0.0 0.00 0.00 0.00 55 1003.8
20260506180003 21 0.0 0.0 0.00 0.00 0.00 54 1003.8
20260506175002 21 0.0 0.0 0.00 0.00 0.00 54 1003.8
20260506174003 22 0.0 0.0 0.00 0.00 0.00 53 1003.9
20260506173003 22 0.0 0.0 0.00 0.00 0.00 52 1003.8
20260506172003 22 0.0 0.0 0.00 0.00 0.00 51 1004.0
20260506171002 23 0.0 0.0 0.00 0.00 0.00 50 1004.2
20260506170002 23 0.0 0.0 0.00 0.00 0.00 50 1004.1
20260506165003 23 0.0 0.0 0.00 0.00 0.00 48 1004.2
20260506164003 23 0.0 0.0 0.00 0.00 0.00 48 1004.2
20260506163002 23 0.0 0.0 0.00 0.00 0.00 48 1004.2
20260506162002 23 0.0 0.0 0.00 0.00 0.00 49 1004.2
20260506161003 24 0.0 0.0 0.00 0.00 0.00 48 1004.4
20260506160003 25 0.0 0.0 0.00 0.00 0.00 48 1004.6
20260506155003 24 0.0 0.0 0.00 0.00 0.00 49 1004.8
20260506154002 23 0.0 0.0 0.00 0.00 0.00 50 1005.0
20260506153002 23 0.0 0.0 0.00 0.00 0.00 49 1005.0
20260506152003 24 0.0 0.0 0.00 0.00 0.00 50 1005.0
20260506151003 24 0.0 0.0 0.00 0.00 0.00 50 1005.2
20260506150003 24 0.0 0.0 0.00 0.00 0.00 46 1005.2
20260506145002 24 0.0 0.0 0.00 0.00 0.00 46 1005.4
20260506144003 24 0.0 0.0 0.00 0.00 0.00 46 1005.4
20260506143003 24 0.0 0.0 0.00 0.00 0.00 46 1005.4
20260506142003 24 0.0 0.0 0.00 0.00 0.00 46 1005.6
20260506141002 24 0.0 0.0 0.00 0.00 0.00 45 1005.6
20260506140002 25 0.0 0.0 0.00 0.00 0.00 44 1005.6
20260506135003 25 0.0 0.0 0.00 0.00 0.00 43 1005.6
20260506134003 25 0.0 0.0 0.00 0.00 0.00 42 1005.8
20260506133002 25 0.0 0.0 0.00 0.00 0.00 43 1005.9
20260506132002 25 0.0 0.0 0.00 0.00 0.00 44 1006.1
20260506131003 25 0.0 0.0 0.00 0.00 0.00 42 1006.0
20260506130003 26 0.0 0.0 0.00 0.00 0.00 42 1006.0
20260506125003 26 0.0 0.0 0.00 0.00 0.00 40 1005.9
20260506124002 26 0.0 0.0 0.00 0.00 0.00 42 1006.1
20260506123002 26 0.0 0.0 0.00 0.00 0.00 44 1006.0
20260506122003 26 0.0 0.0 0.00 0.00 0.00 43 1006.2
20260506121003 26 0.0 0.0 0.00 0.00 0.00 42 1006.1
20260506120003 25 0.0 0.0 0.00 0.00 0.00 42 1006.1
20260506115002 26 0.0 0.0 0.00 0.00 0.00 42 1006.0
20260506114003 25 0.0 0.0 0.00 0.00 0.00 44 1006.0
20260506113003 25 0.0 0.0 0.00 0.00 0.00 44 1006.2
20260506112003 25 0.0 0.0 0.00 0.00 0.00 42 1006.2
20260506111003 25 0.0 0.0 0.00 0.00 0.00 42 1006.2
20260506110002 25 0.0 0.0 0.00 0.00 0.00 44 1006.2
20260506105003 25 0.0 0.0 0.00 0.00 0.00 45 1006.2
20260506104003 25 0.0 0.0 0.00 0.00 0.00 46 1006.0
20260506103003 25 0.0 0.0 0.00 0.00 0.00 46 1006.2
20260506102002 25 0.0 0.0 0.00 0.00 0.00 47 1006.2
20260506101003 25 0.0 0.0 0.00 0.00 0.00 48 1006.4
20260506100003 23 0.0 0.0 0.00 0.00 0.00 52 1006.6